Flag for Germany Weather past 2 weeks in Emsdetten, North Rhine-Westphalia, Germany

Now
46 °F

Partly cloudy.


Feels Like: 39 °F
Forecast: 45 / 54 °F
Wind: 17 mph from West

Location: Muenster / Osnabrueck

Current Time: Oct 22, 2014 at 4:10:31 AM

Latest Report: Oct 22, 2014 at 3:20 AM


Visibility: N/A

Pressure: 29.74 "Hg

Humidity: 93%

Dew point: 45 °F

Location of EmsdettenLocation

Historic Weather in Emsdetten — Graph

°F

Emsdetten temperature yesterday

Maximum temperature yesterday: 55 °F (at 12:20 AM)
Minimum temperature yesterday: 46 °F (at 10:50 PM)
Average temperature yesterday: 53 °F

Past Weeks' High & Low Weather Summary

 TemperatureHumidityPressure
High73 °F (Oct 19, 1:50 PM)100% (Oct 7, 5:20 AM)30.09 "Hg (Oct 7, 5:20 AM)
Low45 °F (Oct 11, 7:20 AM)52% (Oct 14, 2:20 PM)29.45 "Hg (Oct 21, 4:20 PM)
Average57 °F88%29.80 "Hg
* Reported Oct 7 2:20 AM — Oct 22 2:50 AM, Emsdetten, Weather by CustomWeather, © 2014

Note: Actual official high and low records may vary slightly from our data, if they occured in-between our weather recording intervals... More about our weather records

Advertising

Emsdetten weather history for previous 24 hours

 ConditionsComfort  
Time TempWeatherWind HumidityBarometerVisibility
2:50 AM
Oct 22
46 °FSprinkles. Partly cloudy.20 mph93%29.74 "HgN/A
2:20 AM46 °FSprinkles. Partly cloudy.16 mph93%29.71 "HgN/A
1:50 AM45 °FSprinkles. Partly cloudy.18 mph93%29.71 "HgN/A
1:20 AM46 °FRain showers. Partly cloudy.22 mph87%29.71 "HgN/A
12:50 AM46 °FSprinkles. Partly cloudy.21 mph87%29.68 "HgN/A
12:20 AM46 °FPassing clouds.20 mph87%29.65 "HgN/A
11:50 PM
Oct 21
46 °FPassing clouds.15 mph87%29.65 "HgN/A
11:20 PM46 °FPassing clouds.15 mph93%29.65 "HgN/A
10:50 PM46 °FSprinkles. Partly cloudy.16 mph93%29.65 "HgN/A
10:20 PM48 °FPassing clouds.14 mph87%29.62 "HgN/A
9:50 PM48 °FPassing clouds.15 mph87%29.59 "HgN/A
9:20 PM48 °FPassing clouds.15 mph87%29.59 "HgN/A
8:50 PM48 °FPassing clouds.16 mph87%29.56 "HgN/A
8:20 PM50 °FPassing clouds.16 mph82%29.53 "HgN/A
7:50 PM50 °FPassing clouds.21 mph88%29.53 "HgN/A
7:20 PM50 °FScattered clouds.16 mph88%29.50 "HgN/A
6:50 PM52 °FPartly sunny.16 mph88%29.50 "HgN/A
6:20 PM52 °FBroken clouds.14 mph94%29.50 "HgN/A
5:50 PM52 °FBroken clouds.12 mph94%29.47 "HgN/A
5:20 PM52 °FLight rain. Partly sunny.20 mph94%29.45 "Hg6 mi
4:50 PM54 °FLight rain. Partly sunny.12 mph94%29.45 "Hg6 mi
4:20 PM54 °FRain. Partly sunny.12 mph94%29.45 "Hg4 mi
3:50 PM54 °FLight rain. Partly sunny.13 mph94%29.47 "Hg4 mi
3:20 PM54 °FLight rain. Partly sunny.13 mph94%29.47 "Hg2 mi
2:50 PM54 °FLight rain. Broken clouds.15 mph94%29.50 "Hg2 mi
2:20 PM54 °FLight rain. Partly sunny.15 mph94%29.53 "Hg4 mi
1:50 PM54 °FLight rain. Partly sunny.16 mph88%29.53 "Hg4 mi
1:20 PM55 °FLight rain. Partly sunny.15 mph82%29.56 "HgN/A
12:50 PM55 °FLight rain. Partly sunny.15 mph82%29.59 "HgN/A
12:20 PM55 °FPartly sunny.14 mph82%29.62 "HgN/A
11:50 AM55 °FPartly sunny.12 mph82%29.62 "HgN/A
11:20 AM55 °FLight rain. Partly sunny.12 mph82%29.65 "Hg6 mi
10:50 AM55 °FLight rain. Partly sunny.14 mph82%29.65 "HgN/A
10:20 AM55 °FPartly sunny.13 mph82%29.68 "HgN/A
9:50 AM55 °FPartly sunny.13 mph82%29.71 "HgN/A
9:20 AM54 °FPartly sunny.10 mph94%29.71 "HgN/A
8:50 AM54 °FLight rain. Passing clouds.9 mph94%29.74 "Hg5 mi
8:20 AM54 °FPassing clouds.9 mph94%29.74 "HgN/A
7:50 AM54 °FPassing clouds.9 mph88%29.74 "HgN/A
7:20 AM54 °FPassing clouds.9 mph88%29.77 "HgN/A
6:50 AM54 °FPassing clouds.8 mph88%29.77 "HgN/A
6:20 AM54 °FPartly cloudy.8 mph94%29.77 "HgN/A
5:50 AM54 °FPassing clouds.8 mph94%29.77 "HgN/A
5:20 AM55 °FPassing clouds.8 mph88%29.80 "HgN/A
4:50 AM55 °FPassing clouds.9 mph88%29.80 "HgN/A
4:20 AM55 °FPassing clouds.9 mph88%29.83 "HgN/A
Weather by CustomWeather, © 2014

See weather overviewHow to use our weather pages